Location: Newark
(53.3333°N, 83.7500°E)
Time: 13:19:43
(UTC+00:00)

Vanguard 2 - Pass Details

Date: 23 November 2019
Orbit: 553 x 2938 km, 32.9° (Epoch: 09 December)

Event Time Altitude Azimuth Distance (km) Brightness Sun altitude
Rises 23:27:33 0° 199° (SSW) 6,472 12.1 -22.7°
Reaches altitude 10° 23:35:56 10° 175° (S) 4,976 11.8 -21.5°
Maximum altitude 23:40:32 12° 156° (SSE) 4,431 11.8 -20.8°
Drops below altitude 10° 23:44:36 10° 135° (SE) 4,274 12.0 -20.2°
Sets 23:50:19 0° 109° (ESE) 4,701 13.1 -19.4°
